| time (UTC) | temp F | wind direction | speed MPH | gust MPH | rain 1hr in | rain 24hr in | rain mn in | humidity % | barometer mb |
| 20260506231052 | 48 | 275 | 1.0 | 13.0 | 0.00 | 0.00 | 0.00 | 47 | 1015.4 |
| 20260506230553 | 48 | 12 | 5.0 | 13.0 | 0.00 | 0.00 | 0.00 | 46 | 1015.5 |
| 20260506230058 | 48 | 9 | 6.0 | 13.0 | 0.00 | 0.00 | 0.00 | 47 | 1015.6 |
| 20260506225551 | 49 | 15 | 3.0 | 9.0 | 0.00 | 0.00 | 0.00 | 47 | 1015.5 |
| 20260506225048 | 49 | 27 | 1.0 | 6.0 | 0.00 | 0.00 | 0.00 | 45 | 1015.6 |
| 20260506224553 | 49 | 294 | 2.0 | 5.0 | 0.00 | 0.00 | 0.00 | 45 | 1015.5 |
| 20260506224046 | 48 | 238 | 1.0 | 5.0 | 0.00 | 0.00 | 0.00 | 46 | 1015.5 |
| 20260506223548 | 48 | 250 | 2.0 | 8.0 | 0.00 | 0.00 | 0.00 | 47 | 1015.6 |
| 20260506223100 | 48 | 22 | 1.0 | 8.0 | 0.00 | 0.00 | 0.00 | 45 | 1015.5 |
| 20260506222550 | 48 | 16 | 2.0 | 8.0 | 0.00 | 0.00 | 0.00 | 47 | 1015.6 |
| 20260506222049 | 48 | 76 | 3.0 | 8.0 | 0.00 | 0.00 | 0.00 | 45 | 1015.7 |
| 20260506221555 | 49 | 170 | 1.0 | 9.0 | 0.00 | 0.00 | 0.00 | 45 | 1015.7 |
| 20260506221047 | 49 | 129 | 1.0 | 9.0 | 0.00 | 0.00 | 0.00 | 48 | 1015.8 |
| 20260506220551 | 49 | 157 | 3.0 | 9.0 | 0.00 | 0.00 | 0.00 | 46 | 1015.8 |
| 20260506220055 | 49 | 175 | 3.0 | 8.0 | 0.00 | 0.00 | 0.00 | 46 | 1015.8 |
| 20260506215550 | 49 | 215 | 2.0 | 8.0 | 0.00 | 0.00 | 0.00 | 48 | 1015.8 |
| 20260506215051 | 49 | 304 | 4.0 | 8.0 | 0.00 | 0.00 | 0.00 | 45 | 1015.9 |
| 20260506214554 | 49 | 187 | 2.0 | 10.0 | 0.00 | 0.00 | 0.00 | 48 | 1015.9 |
| 20260506214051 | 48 | 101 | 3.0 | 10.0 | 0.00 | 0.00 | 0.00 | 46 | 1016.0 |
| 20260506213552 | 48 | 277 | 2.0 | 8.0 | 0.00 | 0.00 | 0.00 | 45 | 1016.0 |
| 20260506213055 | 48 | 246 | 2.0 | 10.0 | 0.00 | 0.00 | 0.00 | 49 | 1016.0 |
| 20260506212550 | 48 | 273 | 4.0 | 12.0 | 0.00 | 0.00 | 0.00 | 47 | 1016.0 |
| 20260506212048 | 48 | 266 | 2.0 | 12.0 | 0.00 | 0.00 | 0.00 | 49 | 1016.1 |
| 20260506211554 | 48 | 311 | 4.0 | 10.0 | 0.00 | 0.00 | 0.00 | 47 | 1016.1 |
| 20260506211050 | 48 | 165 | 1.0 | 9.0 | 0.00 | 0.00 | 0.00 | 49 | 1016.3 |
| 20260506210548 | 48 | 188 | 2.0 | 17.0 | 0.00 | 0.00 | 0.00 | 50 | 1016.3 |
| 20260506210055 | 48 | 246 | 9.0 | 17.0 | 0.00 | 0.00 | 0.00 | 47 | 1016.4 |
| 20260506205548 | 49 | 273 | 2.0 | 10.0 | 0.00 | 0.00 | 0.00 | 47 | 1016.4 |
| 20260506205048 | 48 | 0 | 3.0 | 11.0 | 0.00 | 0.00 | 0.00 | 47 | 1016.5 |
| 20260506204600 | 48 | 250 | 2.0 | 11.0 | 0.00 | 0.00 | 0.00 | 50 | 1016.7 |
| 20260506204047 | 47 | 275 | 2.0 | 10.0 | 0.00 | 0.00 | 0.00 | 50 | 1016.6 |
| 20260506203550 | 47 | 339 | 2.0 | 10.0 | 0.00 | 0.00 | 0.00 | 47 | 1016.6 |
| 20260506203053 | 47 | 253 | 5.0 | 10.0 | 0.00 | 0.00 | 0.00 | 48 | 1016.8 |
| 20260506202554 | 47 | 251 | 1.0 | 9.0 | 0.00 | 0.00 | 0.00 | 50 | 1016.7 |
| 20260506202053 | 47 | 138 | 3.0 | 14.0 | 0.00 | 0.00 | 0.00 | 47 | 1016.8 |
| 20260506201556 | 47 | 45 | 5.0 | 14.0 | 0.00 | 0.00 | 0.00 | 45 | 1016.8 |
| 20260506201051 | 48 | 246 | 2.0 | 8.0 | 0.00 | 0.00 | 0.00 | 48 | 1017.0 |
| 20260506200554 | 48 | 309 | 2.0 | 11.0 | 0.00 | 0.00 | 0.00 | 50 | 1016.8 |
| 20260506200107 | 48 | 9 | 1.0 | 11.0 | 0.00 | 0.00 | 0.00 | 48 | 1016.8 |
| 20260506195553 | 47 | 209 | 6.0 | 11.0 | 0.00 | 0.00 | 0.00 | 48 | 1016.9 |
| 20260506195051 | 47 | 214 | 3.0 | 11.0 | 0.00 | 0.00 | 0.00 | 48 | 1017.0 |
| 20260506194606 | 47 | 184 | 3.0 | 11.0 | 0.00 | 0.00 | 0.00 | 50 | 1017.0 |
| 20260506194047 | 46 | 143 | 2.0 | 10.0 | 0.00 | 0.00 | 0.00 | 47 | 1017.0 |
| 20260506193547 | 46 | 26 | 2.0 | 10.0 | 0.00 | 0.00 | 0.00 | 53 | 1017.2 |
| 20260506193054 | 46 | 46 | 2.0 | 9.0 | 0.00 | 0.00 | 0.00 | 48 | 1017.1 |
| 20260506192547 | 46 | 28 | 5.0 | 9.0 | 0.00 | 0.00 | 0.00 | 48 | 1017.1 |
| 20260506192051 | 46 | 249 | 2.0 | 8.0 | 0.00 | 0.00 | 0.00 | 48 | 1017.1 |
| 20260506191556 | 46 | 130 | 3.0 | 8.0 | 0.00 | 0.00 | 0.00 | 48 | 1017.1 |
| 20260506191053 | 46 | 257 | 2.0 | 10.0 | 0.00 | 0.00 | 0.00 | 50 | 1017.1 |
| 20260506190550 | 46 | 360 | 3.0 | 14.0 | 0.00 | 0.00 | 0.00 | 49 | 1017.3 |
| 20260506190054 | 46 | 327 | 5.0 | 14.0 | 0.00 | 0.00 | 0.00 | 50 | 1017.2 |
| 20260506185548 | 46 | 272 | 3.0 | 10.0 | 0.00 | 0.00 | 0.00 | 48 | 1017.3 |
| 20260506185052 | 46 | 257 | 2.0 | 9.0 | 0.00 | 0.00 | 0.00 | 51 | 1017.2 |
| 20260506184559 | 46 | 261 | 3.0 | 13.0 | 0.00 | 0.00 | 0.00 | 50 | 1017.3 |
| 20260506184050 | 46 | 0 | 2.0 | 13.0 | 0.00 | 0.00 | 0.00 | 46 | 1017.3 |
| 20260506183551 | 46 | 319 | 3.0 | 17.0 | 0.00 | 0.00 | 0.00 | 50 | 1017.3 |
| 20260506183102 | 46 | 319 | 3.0 | 17.0 | 0.00 | 0.00 | 0.00 | 48 | 1017.4 |
| 20260506182548 | 46 | 67 | 4.0 | 13.0 | 0.00 | 0.00 | 0.00 | 48 | 1017.3 |
| 20260506182047 | 46 | 209 | 3.0 | 13.0 | 0.00 | 0.00 | 0.00 | 50 | 1017.5 |
| 20260506181559 | 46 | 144 | 4.0 | 10.0 | 0.00 | 0.00 | 0.00 | 53 | 1017.6 |
| 20260506181051 | 45 | 360 | 2.0 | 10.0 | 0.00 | 0.00 | 0.00 | 50 | 1017.4 |
| 20260506180552 | 45 | 324 | 3.0 | 10.0 | 0.00 | 0.00 | 0.00 | 50 | 1017.5 |
| 20260506180055 | 45 | 5 | 3.0 | 10.0 | 0.00 | 0.00 | 0.00 | 52 | 1017.7 |
| 20260506175548 | 45 | 208 | 4.0 | 10.0 | 0.00 | 0.00 | 0.00 | 50 | 1017.9 |
| 20260506175050 | 45 | 151 | 2.0 | 14.0 | 0.00 | 0.00 | 0.00 | 51 | 1017.7 |
| 20260506174554 | 44 | 271 | 6.0 | 14.0 | 0.00 | 0.00 | 0.00 | 51 | 1017.8 |
| 20260506174048 | 44 | 189 | 7.0 | 13.0 | 0.00 | 0.00 | 0.00 | 53 | 1017.8 |
| 20260506173551 | 44 | 252 | 3.0 | 12.0 | 0.00 | 0.00 | 0.00 | 52 | 1018.0 |
| 20260506173108 | 44 | 321 | 2.0 | 11.0 | 0.00 | 0.00 | 0.00 | 52 | 1017.9 |
| 20260506172548 | 44 | 347 | 5.0 | 11.0 | 0.00 | 0.00 | 0.00 | 51 | 1018.0 |
| 20260506172049 | 44 | 42 | 3.0 | 10.0 | 0.00 | 0.00 | 0.00 | 53 | 1018.1 |
| 20260506171600 | 44 | 110 | 3.0 | 12.0 | 0.00 | 0.00 | 0.00 | 52 | 1018.1 |
| 20260506171048 | 44 | 307 | 4.0 | 12.0 | 0.00 | 0.00 | 0.00 | 55 | 1018.2 |
| 20260506170549 | 43 | 32 | 3.0 | 8.0 | 0.00 | 0.00 | 0.00 | 54 | 1018.2 |
| 20260506170053 | 44 | 61 | 2.0 | 13.0 | 0.00 | 0.00 | 0.00 | 54 | 1018.2 |
| 20260506165549 | 44 | 5 | 2.0 | 13.0 | 0.00 | 0.00 | 0.00 | 56 | 1018.2 |
| 20260506165049 | 43 | 258 | 2.0 | 8.0 | 0.00 | 0.00 | 0.00 | 54 | 1018.3 |
| 20260506164557 | 43 | 261 | 2.0 | 13.0 | 0.00 | 0.00 | 0.00 | 54 | 1018.4 |
| 20260506164048 | 43 | 256 | 2.0 | 13.0 | 0.00 | 0.00 | 0.00 | 52 | 1018.6 |
| 20260506163550 | 43 | 251 | 3.0 | 12.0 | 0.00 | 0.00 | 0.00 | 53 | 1018.4 |
| 20260506163055 | 43 | 277 | 2.0 | 10.0 | 0.00 | 0.00 | 0.00 | 56 | 1018.4 |
| 20260506162549 | 43 | 123 | 3.0 | 10.0 | 0.00 | 0.00 | 0.00 | 53 | 1018.4 |
| 20260506162050 | 44 | 49 | 2.0 | 10.0 | 0.00 | 0.00 | 0.00 | 58 | 1018.3 |
| 20260506161605 | 43 | 350 | 2.0 | 9.0 | 0.00 | 0.00 | 0.00 | 56 | 1018.4 |
| 20260506161047 | 43 | 36 | 1.0 | 9.0 | 0.00 | 0.00 | 0.00 | 57 | 1018.4 |
| 20260506160551 | 42 | 48 | 3.0 | 9.0 | 0.00 | 0.00 | 0.00 | 56 | 1018.6 |
| 20260506160058 | 42 | 12 | 2.0 | 9.0 | 0.00 | 0.00 | 0.00 | 56 | 1018.6 |
| 20260506155552 | 42 | 5 | 2.0 | 9.0 | 0.00 | 0.00 | 0.00 | 57 | 1018.6 |
| 20260506155050 | 41 | 258 | 2.0 | 8.0 | 0.00 | 0.00 | 0.00 | 57 | 1018.5 |
| 20260506154556 | 41 | 66 | 2.0 | 5.0 | 0.00 | 0.00 | 0.00 | 58 | 1018.5 |
| 20260506154049 | 41 | 15 | 2.0 | 8.0 | 0.00 | 0.00 | 0.00 | 58 | 1018.5 |
| 20260506153550 | 41 | 290 | 2.0 | 8.0 | 0.00 | 0.00 | 0.00 | 58 | 1018.5 |
| 20260506153052 | 41 | 360 | 2.0 | 8.0 | 0.00 | 0.00 | 0.00 | 59 | 1018.5 |
| 20260506152549 | 41 | 0 | 1.0 | 6.0 | 0.00 | 0.00 | 0.00 | 61 | 1018.5 |
| 20260506152050 | 41 | 28 | 1.0 | 9.0 | 0.00 | 0.00 | 0.00 | 60 | 1018.4 |
| 20260506151606 | 40 | 71 | 2.0 | 9.0 | 0.00 | 0.00 | 0.00 | 61 | 1018.6 |
| 20260506151050 | 40 | 150 | 1.0 | 9.0 | 0.00 | 0.00 | 0.00 | 62 | 1018.5 |
| 20260506150550 | 40 | 0 | 2.0 | 9.0 | 0.00 | 0.00 | 0.00 | 61 | 1018.5 |
| 20260506150052 | 40 | 13 | 1.0 | 6.0 | 0.00 | 0.00 | 0.00 | 62 | 1018.5 |
| 20260506145548 | 40 | 42 | 1.0 | 7.0 | 0.00 | 0.00 | 0.00 | 62 | 1018.5 |
| 20260506145047 | 39 | 234 | 1.0 | 7.0 | 0.00 | 0.00 | 0.00 | 62 | 1018.5 |
| 20260506144603 | 39 | 15 | 2.0 | 7.0 | 0.00 | 0.00 | 0.00 | 63 | 1018.4 |
| 20260506144047 | 39 | 5 | 1.0 | 7.0 | 0.00 | 0.00 | 0.00 | 66 | 1018.4 |
| 20260506143549 | 39 | 30 | 2.0 | 9.0 | 0.00 | 0.00 | 0.00 | 65 | 1018.4 |
| 20260506143100 | 39 | 316 | 0.0 | 9.0 | 0.00 | 0.00 | 0.00 | 66 | 1018.4 |
| 20260506142547 | 39 | 308 | 2.0 | 9.0 | 0.00 | 0.00 | 0.00 | 65 | 1018.5 |
| 20260506142049 | 38 | 237 | 0.0 | 8.0 | 0.00 | 0.00 | 0.00 | 68 | 1018.5 |
| 20260506141550 | 38 | 0 | 2.0 | 8.0 | 0.00 | 0.00 | 0.00 | 67 | 1018.5 |
| 20260506141048 | 38 | 332 | 1.0 | 4.0 | 0.00 | 0.00 | 0.00 | 68 | 1018.5 |
| 20260506140550 | 38 | 0 | 1.0 | 6.0 | 0.00 | 0.00 | 0.00 | 67 | 1018.4 |
| 20260506140104 | 38 | 261 | 0.0 | 6.0 | 0.00 | 0.00 | 0.00 | 68 | 1018.4 |
| 20260506135548 | 38 | 165 | 1.0 | 6.0 | 0.00 | 0.00 | 0.00 | 68 | 1018.4 |
| 20260506135049 | 37 | 311 | 1.0 | 3.0 | 0.00 | 0.00 | 0.00 | 69 | 1018.4 |
| 20260506134557 | 37 | 226 | 1.0 | 4.0 | 0.00 | 0.00 | 0.00 | 69 | 1018.4 |
| 20260506134050 | 37 | 225 | 1.0 | 5.0 | 0.00 | 0.00 | 0.00 | 69 | 1018.3 |
| 20260506133549 | 37 | 342 | 1.0 | 5.0 | 0.00 | 0.00 | 0.00 | 69 | 1018.2 |
| 20260506133100 | 37 | 5 | 0.0 | 4.0 | 0.00 | 0.00 | 0.00 | 69 | 1018.2 |
| 20260506132548 | 37 | 71 | 1.0 | 4.0 | 0.00 | 0.00 | 0.00 | 69 | 1018.2 |
| 20260506132047 | 37 | 0 | 1.0 | 4.0 | 0.00 | 0.00 | 0.00 | 69 | 1018.1 |
| 20260506131601 | 37 | 105 | 1.0 | 4.0 | 0.00 | 0.00 | 0.00 | 69 | 1018.2 |
| 20260506131048 | 37 | 0 | 1.0 | 4.0 | 0.00 | 0.00 | 0.00 | 69 | 1018.1 |
| 20260506130550 | 37 | 72 | 0.0 | 4.0 | 0.00 | 0.00 | 0.00 | 69 | 1018.1 |
| 20260506130120 | 37 | 0 | 0.0 | 4.0 | 0.00 | 0.00 | 0.00 | 69 | 1018.1 |
| 20260506125548 | 37 | 103 | 0.0 | 4.0 | 0.00 | 0.00 | 0.00 | 69 | 1018.0 |
| 20260506125048 | 37 | 341 | 1.0 | 4.0 | 0.00 | 0.00 | 0.00 | 69 | 1017.9 |
| 20260506124553 | 36 | 284 | 0.0 | 4.0 | 0.00 | 0.00 | 0.00 | 69 | 1017.8 |
| 20260506124051 | 36 | 0 | 0.0 | 4.0 | 0.00 | 0.00 | 0.00 | 70 | 1017.8 |
| 20260506123552 | 36 | 153 | 1.0 | 3.0 | 0.00 | 0.00 | 0.00 | 70 | 1017.7 |
| 20260506123051 | 36 | 0 | 0.0 | 3.0 | 0.00 | 0.00 | 0.00 | 71 | 1017.6 |
| 20260506122548 | 36 | 0 | 0.0 | 4.0 | 0.00 | 0.00 | 0.00 | 71 | 1017.5 |
| 20260506122049 | 36 | 0 | 0.0 | 4.0 | 0.00 | 0.00 | 0.00 | 71 | 1017.5 |
| 20260506121555 | 36 | 323 | 1.0 | 3.0 | 0.00 | 0.00 | 0.00 | 72 | 1017.4 |
| 20260506121048 | 36 | 0 | 0.0 | 3.0 | 0.00 | 0.00 | 0.00 | 72 | 1017.4 |
| 20260506120550 | 35 | 284 | 1.0 | 4.0 | 0.00 | 0.00 | 0.00 | 72 | 1017.3 |
| 20260506120100 | 35 | 280 | 1.0 | 4.0 | 0.00 | 0.00 | 0.00 | 73 | 1017.1 |
| 20260506115550 | 35 | 281 | 0.0 | 3.0 | 0.00 | 0.00 | 0.00 | 73 | 1017.2 |
| 20260506115050 | 35 | 0 | 0.0 | 2.0 | 0.00 | 0.00 | 0.00 | 73 | 1017.0 |
| 20260506114550 | 35 | 0 | 0.0 | 3.0 | 0.00 | 0.00 | 0.00 | 73 | 1016.8 |
| 20260506114050 | 35 | 0 | 0.0 | 3.0 | 0.00 | 0.00 | 0.00 | 73 | 1016.9 |
| 20260506113547 | 35 | 128 | 0.0 | 2.0 | 0.00 | 0.00 | 0.00 | 73 | 1016.8 |
| 20260506113058 | 35 | 0 | 0.0 | 2.0 | 0.00 | 0.00 | 0.00 | 73 | 1016.8 |
| 20260506112551 | 35 | 0 | 0.0 | 2.0 | 0.00 | 0.00 | 0.00 | 73 | 1016.7 |
| 20260506112050 | 35 | 236 | 0.0 | 3.0 | 0.00 | 0.00 | 0.00 | 72 | 1016.7 |
| 20260506111554 | 35 | 0 | 0.0 | 3.0 | 0.00 | 0.00 | 0.00 | 72 | 1016.6 |
| 20260506111050 | 35 | 0 | 0.0 | 2.0 | 0.00 | 0.00 | 0.00 | 73 | 1016.6 |
| 20260506110550 | 35 | 0 | 0.0 | 2.0 | 0.00 | 0.00 | 0.00 | 72 | 1016.5 |
| 20260506105548 | 35 | 360 | 0.0 | 2.0 | 0.00 | 0.00 | 0.00 | 72 | 1016.5 |
| 20260506105049 | 35 | 0 | 0.0 | 2.0 | 0.00 | 0.00 | 0.00 | 71 | 1016.4 |
| 20260506104613 | 35 | 279 | 0.0 | 2.0 | 0.00 | 0.00 | 0.00 | 72 | 1016.4 |
| 20260506104048 | 35 | 0 | 0.0 | 2.0 | 0.00 | 0.00 | 0.00 | 72 | 1016.5 |
| 20260506103548 | 35 | 0 | 0.0 | 2.0 | 0.00 | 0.00 | 0.00 | 72 | 1016.5 |
| 20260506103054 | 35 | 0 | 0.0 | 3.0 | 0.00 | 0.00 | 0.00 | 72 | 1016.5 |
| 20260506102548 | 35 | 0 | 0.0 | 6.0 | 0.00 | 0.00 | 0.00 | 72 | 1016.6 |
| 20260506102047 | 35 | 260 | 2.0 | 6.0 | 0.00 | 0.00 | 0.00 | 72 | 1016.6 |
| 20260506101602 | 35 | 254 | 1.0 | 3.0 | 0.00 | 0.00 | 0.00 | 73 | 1016.5 |
| 20260506101048 | 35 | 0 | 0.0 | 1.0 | 0.00 | 0.00 | 0.00 | 73 | 1016.5 |
| 20260506100550 | 35 | 0 | 0.0 | 1.0 | 0.00 | 0.00 | 0.00 | 73 | 1016.5 |
| 20260506100055 | 35 | 255 | 0.0 | 2.0 | 0.00 | 0.00 | 0.00 | 73 | 1016.6 |
| 20260506095552 | 35 | 0 | 0.0 | 2.0 | 0.00 | 0.00 | 0.00 | 72 | 1016.5 |
| 20260506095048 | 35 | 0 | 0.0 | 2.0 | 0.00 | 0.00 | 0.00 | 71 | 1016.4 |
| 20260506094558 | 35 | 255 | 0.0 | 3.0 | 0.00 | 0.00 | 0.00 | 71 | 1016.3 |
| 20260506094047 | 35 | 0 | 0.0 | 3.0 | 0.00 | 0.00 | 0.00 | 71 | 1016.3 |
| 20260506093548 | 35 | 277 | 0.0 | 4.0 | 0.00 | 0.00 | 0.00 | 71 | 1016.6 |
| 20260506093100 | 35 | 0 | 1.0 | 4.0 | 0.00 | 0.00 | 0.00 | 71 | 1016.5 |
| 20260506092548 | 35 | 238 | 1.0 | 3.0 | 0.00 | 0.00 | 0.00 | 71 | 1016.4 |
| 20260506092048 | 35 | 0 | 1.0 | 2.0 | 0.00 | 0.00 | 0.00 | 71 | 1016.4 |
| 20260506091551 | 35 | 98 | 0.0 | 3.0 | 0.00 | 0.00 | 0.00 | 71 | 1016.4 |
| 20260506091050 | 35 | 0 | 0.0 | 3.0 | 0.00 | 0.00 | 0.00 | 71 | 1016.3 |
| 20260506090555 | 35 | 295 | 0.0 | 3.0 | 0.00 | 0.00 | 0.00 | 71 | 1016.2 |
| 20260506090056 | 35 | 94 | 0.0 | 4.0 | 0.00 | 0.00 | 0.00 | 70 | 1016.2 |
| 20260506085547 | 35 | 232 | 1.0 | 4.0 | 0.00 | 0.00 | 0.00 | 70 | 1016.2 |
| 20260506085048 | 35 | 163 | 0.0 | 4.0 | 0.00 | 0.00 | 0.00 | 70 | 1016.2 |
| 20260506084554 | 35 | 213 | 0.0 | 3.0 | 0.00 | 0.00 | 0.00 | 70 | 1016.1 |
| 20260506084047 | 35 | 307 | 0.0 | 4.0 | 0.00 | 0.00 | 0.00 | 70 | 1016.0 |
| 20260506083549 | 35 | 253 | 1.0 | 4.0 | 0.00 | 0.00 | 0.00 | 70 | 1016.1 |
| 20260506083056 | 35 | 0 | 0.0 | 4.0 | 0.00 | 0.00 | 0.00 | 70 | 1016.1 |
| 20260506082549 | 35 | 0 | 0.0 | 3.0 | 0.00 | 0.00 | 0.00 | 70 | 1016.1 |
| 20260506082053 | 35 | 203 | 0.0 | 4.0 | 0.00 | 0.00 | 0.00 | 70 | 1016.1 |
| 20260506081556 | 35 | 338 | 1.0 | 4.0 | 0.00 | 0.00 | 0.00 | 70 | 1016.0 |
| 20260506081048 | 35 | 132 | 1.0 | 5.0 | 0.00 | 0.00 | 0.00 | 70 | 1016.1 |
| 20260506080548 | 35 | 111 | 1.0 | 5.0 | 0.00 | 0.00 | 0.00 | 71 | 1016.0 |
| 20260506073104 | 34 | 0 | 1.0 | 3.0 | 0.00 | 0.00 | 0.00 | 74 | 1016.1 |
| 20260506072547 | 33 | 138 | 1.0 | 3.0 | 0.00 | 0.00 | 0.00 | 75 | 1016.2 |
| 20260506072050 | 33 | 121 | 0.0 | 3.0 | 0.00 | 0.00 | 0.00 | 75 | 1016.2 |
| 20260506071610 | 33 | 124 | 1.0 | 3.0 | 0.00 | 0.00 | 0.00 | 76 | 1016.1 |
| 20260506071052 | 33 | 0 | 0.0 | 2.0 | 0.00 | 0.00 | 0.00 | 76 | 1016.3 |
| 20260506070548 | 33 | 0 | 0.0 | 2.0 | 0.00 | 0.00 | 0.00 | 75 | 1016.2 |
| 20260506062048 | 33 | 0 | 0.0 | 2.0 | 0.00 | 0.00 | 0.00 | 71 | 1016.0 |
| 20260506061557 | 33 | 333 | 0.0 | 2.0 | 0.00 | 0.00 | 0.00 | 71 | 1016.1 |
| 20260506061050 | 34 | 0 | 0.0 | 1.0 | 0.00 | 0.00 | 0.00 | 70 | 1016.1 |
| 20260506060547 | 34 | 0 | 0.0 | 0.0 | 0.00 | 0.00 | 0.00 | 70 | 1016.0 |
| 20260506051052 | 36 | 0 | 0.0 | 1.0 | 0.00 | 0.00 | 0.00 | 66 | 1015.7 |
| 20260506050547 | 36 | 0 | 0.0 | 1.0 | 0.00 | 0.00 | 0.00 | 67 | 1015.7 |
| 20260506045048 | 36 | 333 | 0.0 | 2.0 | 0.00 | 0.00 | 0.00 | 67 | 1015.6 |
| 20260506044600 | 37 | 325 | 0.0 | 1.0 | 0.00 | 0.00 | 0.00 | 67 | 1015.5 |
| 20260506044049 | 37 | 0 | 0.0 | 1.0 | 0.00 | 0.00 | 0.00 | 66 | 1015.7 |
| 20260506043549 | 37 | 0 | 0.0 | 1.0 | 0.00 | 0.00 | 0.00 | 67 | 1015.7 |
| 20260506043053 | 37 | 0 | 0.0 | 1.0 | 0.00 | 0.00 | 0.00 | 66 | 1015.6 |
| 20260506042548 | 37 | 325 | 0.0 | 1.0 | 0.00 | 0.00 | 0.00 | 66 | 1015.6 |
| 20260506042050 | 37 | 0 | 0.0 | 3.0 | 0.00 | 0.00 | 0.00 | 66 | 1015.6 |
| 20260506041604 | 37 | 0 | 0.0 | 3.0 | 0.00 | 0.00 | 0.00 | 66 | 1015.5 |
| 20260506041048 | 37 | 0 | 0.0 | 2.0 | 0.00 | 0.00 | 0.00 | 66 | 1015.6 |
| 20260506040547 | 37 | 0 | 0.0 | 2.0 | 0.00 | 0.00 | 0.00 | 65 | 1015.5 |
| 20260506040054 | 37 | 0 | 0.0 | 2.0 | 0.00 | 0.00 | 0.00 | 65 | 1015.6 |
| 20260506035549 | 37 | 0 | 0.0 | 1.0 | 0.00 | 0.00 | 0.00 | 65 | 1015.5 |
| 20260506035049 | 37 | 0 | 0.0 | 1.0 | 0.00 | 0.00 | 0.00 | 64 | 1015.5 |
| 20260506034549 | 38 | 0 | 0.0 | 1.0 | 0.00 | 0.00 | 0.00 | 64 | 1015.3 |
| 20260506034046 | 38 | 0 | 0.0 | 1.0 | 0.00 | 0.00 | 0.00 | 64 | 1015.3 |
| 20260506033551 | 38 | 0 | 0.0 | 1.0 | 0.00 | 0.00 | 0.00 | 63 | 1015.2 |
| 20260506033054 | 38 | 0 | 0.0 | 1.0 | 0.00 | 0.00 | 0.00 | 63 | 1015.1 |
| 20260506032548 | 38 | 0 | 0.0 | 4.0 | 0.00 | 0.00 | 0.00 | 62 | 1015.1 |
| 20260506032048 | 38 | 0 | 0.0 | 4.0 | 0.00 | 0.00 | 0.00 | 62 | 1015.0 |
| 20260506031557 | 39 | 318 | 0.0 | 2.0 | 0.00 | 0.00 | 0.00 | 62 | 1015.0 |
| 20260506031050 | 39 | 0 | 0.0 | 1.0 | 0.00 | 0.00 | 0.00 | 62 | 1014.9 |
| 20260506030552 | 39 | 0 | 0.0 | 2.0 | 0.00 | 0.00 | 0.00 | 62 | 1014.9 |
| 20260506030052 | 39 | 0 | 0.0 | 2.0 | 0.00 | 0.00 | 0.00 | 62 | 1014.8 |
| 20260506025549 | 39 | 0 | 0.0 | 2.0 | 0.00 | 0.00 | 0.00 | 62 | 1014.8 |
| 20260506025048 | 40 | 0 | 0.0 | 1.0 | 0.00 | 0.00 | 0.00 | 62 | 1014.8 |
| 20260506024549 | 40 | 0 | 0.0 | 1.0 | 0.00 | 0.00 | 0.00 | 61 | 1014.6 |
| 20260506024048 | 40 | 0 | 0.0 | 1.0 | 0.00 | 0.00 | 0.00 | 61 | 1014.7 |
| 20260506023551 | 40 | 0 | 0.0 | 1.0 | 0.00 | 0.00 | 0.00 | 60 | 1014.5 |
| 20260506023052 | 40 | 0 | 0.0 | 2.0 | 0.00 | 0.00 | 0.00 | 60 | 1014.5 |
| 20260506022548 | 41 | 0 | 0.0 | 2.0 | 0.00 | 0.00 | 0.00 | 60 | 1014.3 |
| 20260506022048 | 41 | 10 | 0.0 | 2.0 | 0.00 | 0.00 | 0.00 | 60 | 1014.4 |
| 20260506021556 | 41 | 0 | 1.0 | 3.0 | 0.00 | 0.00 | 0.00 | 60 | 1014.4 |
| 20260506021047 | 41 | 10 | 1.0 | 3.0 | 0.00 | 0.00 | 0.00 | 60 | 1014.3 |
| 20260506020547 | 41 | 10 | 0.0 | 2.0 | 0.00 | 0.00 | 0.00 | 59 | 1014.2 |
| 20260506020054 | 42 | 10 | 0.0 | 1.0 | 0.00 | 0.00 | 0.00 | 58 | 1014.2 |
| 20260506015552 | 42 | 0 | 0.0 | 1.0 | 0.00 | 0.00 | 0.00 | 57 | 1014.1 |
| 20260506015046 | 42 | 0 | 0.0 | 3.0 | 0.00 | 0.00 | 0.00 | 57 | 1014.0 |
| 20260506014554 | 42 | 0 | 0.0 | 3.0 | 0.00 | 0.00 | 0.00 | 57 | 1013.9 |
| 20260506014046 | 42 | 10 | 1.0 | 3.0 | 0.00 | 0.00 | 0.00 | 56 | 1013.9 |
| 20260506013547 | 42 | 10 | 1.0 | 3.0 | 0.00 | 0.00 | 0.00 | 55 | 1014.0 |
| 20260506013050 | 43 | 10 | 0.0 | 3.0 | 0.00 | 0.00 | 0.00 | 55 | 1013.9 |
| 20260506012547 | 43 | 338 | 0.0 | 3.0 | 0.00 | 0.00 | 0.00 | 56 | 1013.8 |
| 20260506012048 | 43 | 0 | 0.0 | 5.0 | 0.00 | 0.00 | 0.00 | 55 | 1013.8 |
| 20260506011550 | 43 | 5 | 1.0 | 10.0 | 0.00 | 0.00 | 0.00 | 55 | 1013.7 |
| 20260506011047 | 43 | 360 | 1.0 | 10.0 | 0.00 | 0.00 | 0.00 | 55 | 1013.8 |
| 20260506010550 | 43 | 9 | 3.0 | 10.0 | 0.00 | 0.00 | 0.00 | 53 | 1013.8 |
| 20260506010052 | 44 | 5 | 3.0 | 4.0 | 0.00 | 0.00 | 0.00 | 52 | 1013.8 |
| 20260506005547 | 44 | 12 | 1.0 | 4.0 | 0.00 | 0.00 | 0.00 | 51 | 1013.8 |
| 20260506005048 | 44 | 169 | 1.0 | 4.0 | 0.00 | 0.00 | 0.00 | 50 | 1013.8 |
| 20260506004555 | 44 | 295 | 1.0 | 4.0 | 0.00 | 0.00 | 0.00 | 50 | 1013.6 |
| 20260506004047 | 45 | 355 | 0.0 | 4.0 | 0.00 | 0.00 | 0.00 | 51 | 1013.8 |
| 20260506003547 | 45 | 188 | 0.0 | 5.0 | 0.00 | 0.00 | 0.00 | 51 | 1013.6 |
| 20260506003054 | 45 | 0 | 0.0 | 8.0 | 0.00 | 0.00 | 0.00 | 50 | 1013.6 |
| 20260506002547 | 45 | 346 | 1.0 | 8.0 | 0.00 | 0.00 | 0.00 | 50 | 1013.5 |
| 20260506002048 | 45 | 242 | 2.0 | 8.0 | 0.00 | 0.00 | 0.00 | 50 | 1013.4 |
| 20260506001612 | 45 | 325 | 1.0 | 5.0 | 0.00 | 0.00 | 0.00 | 51 | 1013.4 |
| 20260506001048 | 45 | 205 | 0.0 | 5.0 | 0.00 | 0.00 | 0.00 | 50 | 1013.4 |
| 20260506000549 | 46 | 38 | 1.0 | 8.0 | 0.00 | 0.00 | 0.00 | 51 | 1013.3 |
| 20260506000058 | 46 | 9 | 2.0 | 8.0 | 0.00 | 0.00 | 0.00 | 51 | 1013.3 |
| 20260505235546 | 46 | 360 | 1.0 | 9.0 | 0.00 | 0.00 | 0.00 | 51 | 1013.2 |
| 20260505235048 | 46 | 44 | 2.0 | 9.0 | 0.00 | 0.00 | 0.00 | 49 | 1013.2 |
| 20260505234600 | 46 | 61 | 2.0 | 5.0 | 0.00 | 0.00 | 0.00 | 48 | 1013.3 |
| 20260505234049 | 46 | 251 | 1.0 | 11.0 | 0.00 | 0.00 | 0.00 | 48 | 1013.3 |
| 20260505233549 | 46 | 49 | 2.0 | 11.0 | 0.00 | 0.00 | 0.00 | 47 | 1013.2 |
| 20260505233059 | 46 | 89 | 1.0 | 9.0 | 0.00 | 0.00 | 0.00 | 49 | 1013.2 |
| 20260505232547 | 46 | 336 | 1.0 | 9.0 | 0.00 | 0.00 | 0.00 | 49 | 1013.2 |
| 20260505232047 | 46 | 15 | 3.0 | 9.0 | 0.00 | 0.00 | 0.00 | 48 | 1013.2 |
| 20260505231559 | 46 | 235 | 1.0 | 7.0 | 0.00 | 0.00 | 0.00 | 48 | 1013.2 |